User: anonymous
Location: Fort Wayne
(41.1310°N, 85.1290°W)
Time: 21:34:31
(UTC-04:00)
Language:

Meteor 2-10 Rocket - Orbit

View from above orbital plane
View from above orbital plane
View from above satellite
View from above satellite

Ground track
Ground track

The orbit data is extracted from the following two-line orbital elements,

1 14453U 83109B   14233.50730648  .00000061  00000-0  19202-4 0  2172
2 14453 081.1645 063.0671 0105655 164.6590 254.3240 14.24506671600787
Epoch (UTC): 21 August 2014 12:10:31
Eccentricity: 0.0105655
inclination: 81.1645°
perigee height: 734 km
apogee height: 886 km
right ascension of ascending node: 63.0671°
argument of perigee: 164.6590°
revolutions per day: 14.24506671
mean anomaly at epoch: 254.3240°
orbit number at epoch: 60078

The dashed part of the orbit path shows where the satellite is in the earth's shadow,  

DLR